IK5UIK-3 Weather Reports


time (UTC)temp
C
wind
direction
speed
KPH
gust
KPH
rain 1hr
cm
rain 24hr
cm
rain mn
cm
humidity
%
barometer
mb
20260906100003 31 180 0.0 3.2 0.00 0.00 0.00 57 1013.2
20260906095403 31 225 0.0 1.6 0.00 0.00 0.00 58 1013.1
20260906094907 31 270 0.0 6.4 0.00 0.00 0.00 59 1013.2
20260906094803 31 180 0.0 6.4 0.00 0.00 0.00 59 1013.2
20260906094203 30 135 3.2 3.2 0.00 0.00 0.00 59 1013.2
20260906093603 30 157 0.0 3.2 0.00 0.00 0.00 61 1013.2
20260906093405 30 247 1.6 3.2 0.00 0.00 0.00 61 1013.2
20260906093003 30 270 0.0 3.2 0.00 0.00 0.00 62 1013.2
20260906092905 29 225 3.2 3.2 0.00 0.00 0.00 62 1013.1
20260906092403 29 157 1.6 4.8 0.00 0.00 0.00 63 1013.2
20260906091803 29 270 1.6 1.6 0.00 0.00 0.00 64 1013.2
20260906091405 28 157 1.6 1.6 0.00 0.00 0.00 64 1013.3
20260906091203 28 180 0.0 3.2 0.00 0.00 0.00 66 1013.3
20260906090603 28 270 3.2 3.2 0.00 0.00 0.00 66 1013.3
20260906090439 28 180 0.0 1.6 0.00 0.00 0.00 66 1013.4
20260906090405 28 180 0.0 1.6 0.00 0.00 0.00 66 1013.4
20260906090003 28 292 1.6 3.2 0.00 0.00 0.00 67 1013.4
20260906084910 27 315 0.0 3.2 0.00 0.00 0.00 68 1013.4
20260906084405 27 270 0.0 0.0 0.00 0.00 0.00 70 1013.4
20260906083924 27 202 0.0 0.0 0.00 0.00 0.00 70 1013.3
20260906083603 27 157 0.0 3.2 0.00 0.00 0.00 70 1013.4
20260906083003 27 292 3.2 4.8 0.00 0.00 0.00 71 1013.5
20260906082906 27 292 0.0 4.8 0.00 0.00 0.00 71 1013.4
20260906082403 27 292 4.8 4.8 0.00 0.00 0.00 72 1013.5
20260906081803 26 292 0.0 1.6 0.00 0.00 0.00 73 1013.5
20260906081203 26 247 0.0 3.2 0.00 0.00 0.00 73 1013.5
20260906080908 26 292 0.0 3.2 0.00 0.00 0.00 73 1013.5
20260906080603 26 0 3.2 3.2 0.00 0.00 0.00 74 1013.4
20260906080445 26 292 3.2 3.2 0.00 0.00 0.00 74 1013.5
20260906080411 26 292 3.2 3.2 0.00 0.00 0.00 74 1013.5
20260906080003 26 337 1.6 3.2 0.00 0.00 0.00 75 1013.4
20260906075906 26 180 0.0 3.2 0.00 0.00 0.00 75 1013.4
20260906075403 25 247 3.2 3.2 0.00 0.00 0.00 75 1013.5
20260906074906 25 292 1.6 1.6 0.00 0.00 0.00 76 1013.5
20260906074803 25 292 1.6 1.6 0.00 0.00 0.00 76 1013.5
20260906074406 25 315 0.0 1.6 0.00 0.00 0.00 77 1013.4
20260906074203 25 225 1.6 1.6 0.00 0.00 0.00 77 1013.4
20260906073906 25 225 0.0 0.0 0.00 0.00 0.00 77 1013.4
20260906073603 25 315 0.0 0.0 0.00 0.00 0.00 77 1013.3
20260906073003 24 157 0.0 4.8 0.00 0.00 0.00 78 1013.3
20260906072403 24 225 1.6 1.6 0.00 0.00 0.00 79 1013.3
20260906071803 24 157 0.0 0.0 0.00 0.00 0.00 79 1013.2
20260906071203 23 180 1.6 1.6 0.00 0.00 0.00 81 1013.2
20260906070906 23 0 0.0 0.0 0.00 0.00 0.00 81 1013.1
20260906070603 23 0 0.0 0.0 0.00 0.00 0.00 82 1013.1
20260906070407 23 0 0.0 0.0 0.00 0.00 0.00 82 1013.1
20260906070003 22 0 0.0 0.0 0.00 0.00 0.00 82 1013.0
20260906065403 22 0 0.0 0.0 0.00 0.00 0.00 83 1013.0
20260906064906 21 135 0.0 1.6 0.00 0.00 0.00 83 1013.0
20260906064803 21 157 0.0 1.6 0.00 0.00 0.00 83 1013.0
20260906064406 21 247 1.6 1.6 0.00 0.00 0.00 84 1013.0
20260906064203 21 180 1.6 1.6 0.00 0.00 0.00 84 1013.0
20260906063603 20 67 1.6 1.6 0.00 0.00 0.00 85 1012.9
20260906063408 20 157 1.6 3.2 0.00 0.00 0.00 85 1013.0
20260906063003 20 157 1.6 4.8 0.00 0.00 0.00 85 1012.9
20260906062907 20 157 3.2 4.8 0.00 0.00 0.00 85 1012.9
20260906062403 20 180 3.2 4.8 0.00 0.00 0.00 86 1013.0
20260906061907 20 135 4.8 4.8 0.00 0.00 0.00 86 1012.9
20260906061803 19 157 1.6 1.6 0.00 0.00 0.00 86 1012.9
20260906061406 19 157 1.6 4.8 0.00 0.00 0.00 86 1012.9
20260906061203 19 157 4.8 4.8 0.00 0.00 0.00 86 1012.9
20260906060603 18 135 1.6 4.8 0.00 0.00 0.00 86 1012.9
20260906060406 18 135 4.8 4.8 0.00 0.00 0.00 86 1012.9
20260906060003 18 157 4.8 4.8 0.00 0.00 0.00 86 1012.8
20260906055403 18 157 3.2 6.4 0.00 0.00 0.00 86 1012.7
20260906054906 18 135 1.6 3.2 0.00 0.00 0.00 86 1012.7
20260906054803 18 90 1.6 3.2 0.00 0.00 0.00 86 1012.7
20260906054411 18 112 1.6 3.2 0.00 0.00 0.00 86 1012.7
20260906054203 18 112 1.6 3.2 0.00 0.00 0.00 86 1012.7
20260906053906 18 112 3.2 3.2 0.00 0.00 0.00 86 1012.7
20260906053603 18 135 0.0 3.2 0.00 0.00 0.00 86 1012.6
20260906053003 18 135 3.2 3.2 0.00 0.00 0.00 86 1012.7
20260906052906 18 112 1.6 1.6 0.00 0.00 0.00 86 1012.7
20260906052403 18 180 0.0 4.8 0.00 0.00 0.00 86 1012.7
20260906051803 18 112 4.8 4.8 0.00 0.00 0.00 86 1012.7
20260906051406 18 135 3.2 4.8 0.00 0.00 0.00 86 1012.6
20260906051203 18 202 0.0 4.8 0.00 0.00 0.00 86 1012.6
20260906050906 18 157 4.8 4.8 0.00 0.00 0.00 86 1012.6
20260906050603 18 157 3.2 3.2 0.00 0.00 0.00 86 1012.6
20260906050408 18 135 1.6 6.4 0.00 0.00 0.00 86 1012.5
20260906050003 18 135 0.0 6.4 0.00 0.00 0.00 86 1012.6
20260906045907 18 135 6.4 6.4 0.00 0.00 0.00 86 1012.6
20260906045403 18 135 4.8 4.8 0.00 0.00 0.00 86 1012.6
20260906044907 19 157 0.0 1.6 0.00 0.00 0.00 86 1012.5
20260906044803 19 157 0.0 1.6 0.00 0.00 0.00 86 1012.6
20260906044406 18 157 1.6 1.6 0.00 0.00 0.00 86 1012.5
20260906044203 19 180 0.0 0.0 0.00 0.00 0.00 86 1012.5
20260906043906 18 157 0.0 0.0 0.00 0.00 0.00 86 1012.5
20260906043603 19 157 0.0 0.0 0.00 0.00 0.00 85 1012.5
20260906043410 19 112 0.0 0.0 0.00 0.00 0.00 85 1012.6
20260906043003 18 135 0.0 0.0 0.00 0.00 0.00 86 1012.6
20260906042910 18 135 0.0 0.0 0.00 0.00 0.00 86 1012.5
20260906042403 18 157 0.0 0.0 0.00 0.00 0.00 86 1012.5
20260906041803 18 157 0.0 1.6 0.00 0.00 0.00 86 1012.5
20260906041408 18 157 0.0 1.6 0.00 0.00 0.00 86 1012.5
20260906041203 18 157 0.0 1.6 0.00 0.00 0.00 86 1012.6
20260906040906 18 157 1.6 1.6 0.00 0.00 0.00 85 1012.5
20260906040603 18 157 0.0 0.0 0.00 0.00 0.00 85 1012.4
20260906040441 19 112 0.0 0.0 0.00 0.00 0.00 85 1012.3
20260906040406 19 112 0.0 0.0 0.00 0.00 0.00 85 1012.3
20260906040003 19 112 0.0 0.0 0.00 0.00 0.00 85 1012.3
20260906035906 19 112 0.0 0.0 0.00 0.00 0.00 85 1012.3
20260906035403 19 135 0.0 0.0 0.00 0.00 0.00 85 1012.5
20260906034907 19 135 0.0 0.0 0.00 0.00 0.00 85 1012.4
20260906034803 19 157 0.0 0.0 0.00 0.00 0.00 85 1012.3
20260906034406 19 157 0.0 0.0 0.00 0.00 0.00 85 1012.3
20260906034203 19 157 0.0 0.0 0.00 0.00 0.00 85 1012.3
20260906033908 19 157 0.0 0.0 0.00 0.00 0.00 85 1012.3
20260906033603 19 180 0.0 0.0 0.00 0.00 0.00 85 1012.3
20260906033408 19 135 0.0 0.0 0.00 0.00 0.00 85 1012.2
20260906033003 19 157 0.0 0.0 0.00 0.00 0.00 85 1012.2
20260906032403 19 180 0.0 0.0 0.00 0.00 0.00 85 1012.1
20260906031803 19 157 0.0 0.0 0.00 0.00 0.00 85 1012.1
20260906031408 19 135 0.0 0.0 0.00 0.00 0.00 85 1012.1
20260906031203 19 180 0.0 0.0 0.00 0.00 0.00 85 1012.1
20260906030906 19 112 0.0 0.0 0.00 0.00 0.00 85 1012.2
20260906030603 19 157 0.0 0.0 0.00 0.00 0.00 85 1012.0
20260906030408 19 157 0.0 0.0 0.00 0.00 0.00 85 1012.1
20260906030004 20 180 0.0 0.0 0.00 0.00 0.00 85 1012.1
20260906025907 20 135 0.0 0.0 0.00 0.00 0.00 85 1012.1
20260906025403 20 180 0.0 0.0 0.00 0.00 0.00 85 1012.0
20260906024907 20 157 0.0 0.0 0.00 0.00 0.00 84 1012.0
20260906024803 20 157 0.0 0.0 0.00 0.00 0.00 84 1012.0
20260906024410 20 112 0.0 0.0 0.00 0.00 0.00 84 1012.0
20260906024203 20 135 0.0 0.0 0.00 0.00 0.00 84 1012.1
20260906023603 20 135 0.0 0.0 0.00 0.00 0.00 84 1012.0
20260906023004 20 135 0.0 0.0 0.00 0.00 0.00 84 1012.1
20260906022907 20 157 0.0 0.0 0.00 0.00 0.00 84 1012.1
20260906022403 20 135 0.0 4.8 0.00 0.00 0.00 84 1012.1
20260906021804 20 112 0.0 0.0 0.00 0.00 0.00 84 1011.8
20260906021204 20 157 0.0 0.0 0.00 0.00 0.00 84 1012.1
20260906020907 20 135 0.0 0.0 0.00 0.00 0.00 83 1012.0
20260906020604 20 135 0.0 0.0 0.00 0.00 0.00 83 1012.0
20260906020004 20 157 0.0 0.0 0.00 0.00 0.00 83 1012.0
20260906015404 20 135 0.0 0.0 0.00 0.00 0.00 84 1012.0
20260906014804 20 157 0.0 0.0 0.00 0.00 0.00 84 1011.9
20260906014406 20 112 0.0 0.0 0.00 0.00 0.00 84 1012.0
20260906014204 20 112 0.0 0.0 0.00 0.00 0.00 84 1012.0
20260906013907 20 135 0.0 0.0 0.00 0.00 0.00 84 1012.1
20260906013604 20 135 0.0 0.0 0.00 0.00 0.00 83 1012.0
20260906013407 20 90 0.0 0.0 0.00 0.00 0.00 83 1012.0
20260906013004 20 157 0.0 0.0 0.00 0.00 0.00 83 1012.1
20260906012404 20 135 0.0 0.0 0.00 0.00 0.00 83 1012.0
20260906011906 20 112 0.0 0.0 0.00 0.00 0.00 83 1012.0
20260906011804 20 112 0.0 0.0 0.00 0.00 0.00 83 1011.9
20260906011408 20 135 0.0 0.0 0.00 0.00 0.00 83 1012.1
20260906011204 20 90 0.0 0.0 0.00 0.00 0.00 83 1012.2
20260906010909 20 135 0.0 0.0 0.00 0.00 0.00 83 1012.0
20260906010604 20 135 0.0 0.0 0.00 0.00 0.00 82 1012.3
20260906010406 20 135 0.0 0.0 0.00 0.00 0.00 82 1012.0
20260906010004 20 157 0.0 0.0 0.00 0.00 0.00 82 1012.1
20260906005908 20 157 0.0 0.0 0.00 0.00 0.00 82 1012.2
20260906005404 20 135 0.0 0.0 0.00 0.00 0.00 82 1012.0
20260906004907 20 180 0.0 0.0 0.00 0.00 0.00 82 1012.2
20260906004804 20 157 0.0 0.0 0.00 0.00 0.00 82 1012.1
20260906004406 20 157 0.0 0.0 0.00 0.00 0.00 82 1012.2
20260906004204 20 157 0.0 0.0 0.00 0.00 0.00 82 1012.2
20260906003906 20 135 0.0 0.0 0.00 0.00 0.00 82 1012.1
20260906003604 20 202 0.0 0.0 0.00 0.00 0.00 82 1012.1
20260906003408 20 202 0.0 0.0 0.00 0.00 0.00 82 1012.1
20260906003004 20 90 0.0 0.0 0.00 0.00 0.00 82 1012.0
20260906002404 21 157 0.0 0.0 0.00 0.00 0.00 82 1012.0
20260906001909 21 157 0.0 0.0 0.00 0.00 0.00 82 1012.1
20260906001804 21 112 0.0 0.0 0.00 0.00 0.00 82 1012.1
20260906001407 21 157 0.0 0.0 0.00 0.00 0.00 82 1012.0
20260906001204 21 135 0.0 0.0 0.00 0.00 0.00 81 1012.0
20260906000604 21 157 0.0 0.0 0.00 0.00 0.00 81 1012.0
20260906000410 21 157 0.0 0.0 0.00 0.00 0.00 81 1012.0
20260906000004 21 135 0.0 0.0 0.00 0.00 0.00 81 1012.0
20260905235907 21 135 0.0 0.0 0.00 0.00 0.00 81 1012.0
20260905235404 21 157 0.0 0.0 0.00 0.00 0.00 81 1012.0
20260905234804 21 157 0.0 0.0 0.00 0.00 0.00 81 1012.0
20260905234408 21 157 0.0 0.0 0.00 0.00 0.00 81 1012.1
20260905234204 21 135 0.0 0.0 0.00 0.00 0.00 81 1012.0
20260905233907 21 157 0.0 0.0 0.00 0.00 0.00 81 1012.0
20260905233604 21 135 0.0 0.0 0.00 0.00 0.00 81 1012.1
20260905233408 21 135 0.0 0.0 0.00 0.00 0.00 81 1012.1
20260905233004 21 157 0.0 0.0 0.00 0.00 0.00 81 1012.1
20260905232907 21 112 0.0 0.0 0.00 0.00 0.00 81 1012.0
20260905232404 21 135 0.0 0.0 0.00 0.00 0.00 81 1012.2
20260905231907 21 157 0.0 0.0 0.00 0.00 0.00 81 1012.1
20260905231804 21 157 0.0 0.0 0.00 0.00 0.00 80 1012.2
20260905231407 21 202 0.0 0.0 0.00 0.00 0.00 80 1012.1
20260905231204 21 157 0.0 0.0 0.00 0.00 0.00 80 1012.2
20260905230907 21 157 0.0 0.0 0.00 0.00 0.00 80 1012.3
20260905230604 21 157 0.0 0.0 0.00 0.00 0.00 80 1012.1
20260905230408 21 157 0.0 0.0 0.00 0.00 0.00 80 1012.1
20260905230004 21 90 0.0 0.0 0.00 0.00 0.00 80 1012.1
20260905225404 21 135 0.0 0.0 0.00 0.00 0.00 79 1012.2
20260905224907 22 112 0.0 0.0 0.00 0.00 0.00 79 1012.2
20260905224804 22 112 0.0 0.0 0.00 0.00 0.00 79 1012.1
20260905224411 22 157 0.0 0.0 0.00 0.00 0.00 79 1012.2
20260905224204 22 157 0.0 0.0 0.00 0.00 0.00 79 1012.1
20260905223604 22 157 0.0 0.0 0.00 0.00 0.00 79 1012.1
20260905223410 22 157 0.0 0.0 0.00 0.00 0.00 79 1012.1
20260905223004 22 157 0.0 0.0 0.00 0.00 0.00 79 1012.0
20260905222908 22 157 0.0 0.0 0.00 0.00 0.00 79 1011.9
20260905222404 22 157 0.0 0.0 0.00 0.00 0.00 79 1012.2
20260905221908 22 157 0.0 0.0 0.00 0.00 0.00 78 1012.0
20260905221804 22 157 0.0 0.0 0.00 0.00 0.00 78 1012.0
20260905221204 22 45 0.0 0.0 0.00 0.00 0.00 78 1012.0
20260905220907 22 135 0.0 0.0 0.00 0.00 0.00 78 1011.9
20260905220604 22 112 0.0 0.0 0.00 0.00 0.00 78 1011.9
20260905220407 22 135 0.0 0.0 0.00 0.00 0.00 78 1011.8
20260905220005 22 157 0.0 0.0 0.00 0.00 0.00 77 1011.8
20260905215404 22 157 0.0 0.0 0.00 0.00 0.00 77 1011.7
20260905214804 22 112 0.0 0.0 0.00 0.00 0.00 77 1011.8
20260905214407 22 135 0.0 0.0 0.00 0.00 0.00 77 1011.8
20260905214204 22 135 0.0 0.0 0.00 0.00 0.00 77 1011.7
20260905213908 22 90 0.0 0.0 0.00 0.00 0.00 77 1011.8
20260905213604 23 157 0.0 6.4 0.00 0.00 0.00 76 1011.8
20260905213004 23 157 6.4 6.4 0.00 0.00 0.00 76 1011.7
20260905212404 23 157 0.0 0.0 0.00 0.00 0.00 75 1011.6
20260905211804 23 112 0.0 0.0 0.00 0.00 0.00 75 1011.5
20260905211408 23 157 0.0 0.0 0.00 0.00 0.00 75 1011.5
20260905211204 23 157 0.0 0.0 0.00 0.00 0.00 75 1011.6
20260905210604 23 135 0.0 0.0 0.00 0.00 0.00 74 1011.5
20260905210004 23 157 0.0 0.0 0.00 0.00 0.00 74 1011.7
20260905205404 23 157 0.0 0.0 0.00 0.00 0.00 73 1011.6
20260905204908 24 180 0.0 0.0 0.00 0.00 0.00 73 1011.5
20260905204804 24 180 0.0 0.0 0.00 0.00 0.00 73 1011.6
20260905204204 24 157 0.0 0.0 0.00 0.00 0.00 73 1011.6
20260905203908 24 45 0.0 0.0 0.00 0.00 0.00 73 1011.5
20260905203604 24 45 0.0 0.0 0.00 0.00 0.00 72 1011.5
20260905203409 24 45 0.0 0.0 0.00 0.00 0.00 72 1011.5
20260905203004 25 22 0.0 0.0 0.00 0.00 0.00 72 1011.5
20260905202907 25 22 0.0 0.0 0.00 0.00 0.00 71 1011.5
20260905202404 25 22 0.0 0.0 0.00 0.00 0.00 71 1011.5
20260905201804 25 22 0.0 0.0 0.00 0.00 0.00 71 1011.4
20260905201204 25 22 0.0 0.0 0.00 0.00 0.00 70 1011.3
20260905200604 25 22 0.0 0.0 0.00 0.00 0.00 70 1011.2
20260905200407 25 22 0.0 0.0 0.00 0.00 0.00 70 1011.3
20260905200004 25 22 0.0 0.0 0.00 0.00 0.00 70 1011.4
20260905195908 25 22 0.0 0.0 0.00 0.00 0.00 70 1011.4
20260905195404 25 22 0.0 0.0 0.00 0.00 0.00 69 1011.3
20260905194907 25 22 0.0 0.0 0.00 0.00 0.00 69 1011.2
20260905194804 25 22 0.0 0.0 0.00 0.00 0.00 69 1011.2
20260905194407 26 0 0.0 0.0 0.00 0.00 0.00 68 1011.3
20260905194204 26 0 0.0 0.0 0.00 0.00 0.00 68 1011.3
20260905193604 26 225 0.0 0.0 0.00 0.00 0.00 67 1011.1
20260905193004 26 270 0.0 0.0 0.00 0.00 0.00 66 1011.0
20260905192404 26 247 0.0 0.0 0.00 0.00 0.00 66 1011.0
20260905191804 26 225 0.0 0.0 0.00 0.00 0.00 66 1010.8
20260905191407 26 180 0.0 0.0 0.00 0.00 0.00 65 1010.7
20260905191204 26 225 0.0 0.0 0.00 0.00 0.00 65 1010.7
20260905190604 26 247 0.0 0.0 0.00 0.00 0.00 65 1010.7
20260905190004 27 247 0.0 0.0 0.00 0.00 0.00 65 1010.7
20260905185907 27 247 0.0 0.0 0.00 0.00 0.00 65 1010.7
20260905185404 27 225 0.0 0.0 0.00 0.00 0.00 65 1010.8
20260905184804 27 180 0.0 0.0 0.00 0.00 0.00 65 1010.7
20260905184407 27 202 0.0 0.0 0.00 0.00 0.00 65 1010.7
20260905184204 27 225 0.0 0.0 0.00 0.00 0.00 65 1010.7
20260905183909 27 247 0.0 1.6 0.00 0.00 0.00 65 1010.6
20260905183604 27 247 1.6 1.6 0.00 0.00 0.00 64 1010.6
20260905183004 27 247 0.0 0.0 0.00 0.00 0.00 64 1010.6
20260905182907 27 202 0.0 0.0 0.00 0.00 0.00 64 1010.6
20260905182404 27 202 0.0 0.0 0.00 0.00 0.00 63 1010.5
20260905181804 27 270 0.0 0.0 0.00 0.00 0.00 63 1010.4
20260905181408 27 225 0.0 0.0 0.00 0.00 0.00 62 1010.4
20260905181204 28 225 0.0 0.0 0.00 0.00 0.00 62 1010.3
20260905180604 28 270 0.0 0.0 0.00 0.00 0.00 62 1010.3
20260905180004 28 270 0.0 0.0 0.00 0.00 0.00 61 1010.3
20260905175907 28 202 0.0 0.0 0.00 0.00 0.00 60 1010.2
20260905175405 28 315 0.0 0.0 0.00 0.00 0.00 60 1010.1
20260905174908 28 270 0.0 0.0 0.00 0.00 0.00 59 1010.1
20260905174805 28 270 0.0 0.0 0.00 0.00 0.00 59 1010.0
20260905174205 28 315 0.0 0.0 0.00 0.00 0.00 58 1009.9
20260905173908 29 292 0.0 3.2 0.00 0.00 0.00 58 1009.9
20260905173605 29 292 0.0 3.2 0.00 0.00 0.00 58 1009.9
20260905173409 29 292 3.2 4.8 0.00 0.00 0.00 57 1009.9
20260905173005 29 315 4.8 9.7 0.00 0.00 0.00 57 1009.8
20260905172405 30 270 9.7 9.7 0.00 0.00 0.00 56 1009.7
20260905171805 30 337 1.6 4.8 0.00 0.00 0.00 55 1009.7
20260905171409 30 292 4.8 4.8 0.00 0.00 0.00 55 1009.8
20260905171205 30 270 4.8 4.8 0.00 0.00 0.00 55 1009.8
20260905170909 30 22 3.2 4.8 0.00 0.00 0.00 55 1009.8
20260905170605 30 270 1.6 4.8 0.00 0.00 0.00 54 1009.8
20260905170410 30 22 4.8 4.8 0.00 0.00 0.00 54 1009.8
20260905170005 30 337 3.2 4.8 0.00 0.00 0.00 53 1009.7
20260905165911 30 337 3.2 4.8 0.00 0.00 0.00 53 1009.6
20260905165405 31 315 0.0 4.8 0.00 0.00 0.00 52 1009.7
20260905164805 31 292 4.8 6.4 0.00 0.00 0.00 51 1009.6
20260905164410 31 247 0.0 8.0 0.00 0.00 0.00 51 1009.5
20260905164205 31 270 6.4 8.0 0.00 0.00 0.00 51 1009.7
20260905163909 31 270 8.0 8.0 0.00 0.00 0.00 51 1009.6
20260905163605 31 292 6.4 8.0 0.00 0.00 0.00 52 1009.5
20260905163005 31 270 8.0 12.9 0.00 0.00 0.00 53 1009.4
20260905162908 31 292 12.9 12.9 0.00 0.00 0.00 53 1009.5
20260905162405 31 315 6.4 9.7 0.00 0.00 0.00 53 1009.4
20260905161907 31 247 4.8 4.8 0.00 0.00 0.00 51 1009.4
20260905161805 31 247 4.8 6.4 0.00 0.00 0.00 51 1009.4
20260905161408 32 157 4.8 6.4 0.00 0.00 0.00 51 1009.5
20260905161205 32 292 6.4 9.7 0.00 0.00 0.00 51 1009.4
20260905160605 32 337 1.6 6.4 0.00 0.00 0.00 51 1009.3
20260905160005 32 292 3.2 12.9 0.00 0.00 0.00 51 1009.2
20260905155909 32 292 3.2 12.9 0.00 0.00 0.00 51 1009.3
20260905155405 32 157 11.3 11.3 0.00 0.00 0.00 51 1009.3
20260905154805 32 202 1.6 4.8 0.00 0.00 0.00 49 1009.3
20260905154205 32 337 1.6 14.5 0.00 0.00 0.00 48 1009.2
20260905153909 32 270 9.7 14.5 0.00 0.00 0.00 48 1009.2
20260905153605 32 292 6.4 6.4 0.00 0.00 0.00 48 1009.2
20260905153007 33 292 0.0 9.7 0.00 0.00 0.00 46 1009.1
20260905152908 33 292 0.0 9.7 0.00 0.00 0.00 46 1009.2
20260905152405 33 247 3.2 12.9 0.00 0.00 0.00 46 1009.2
20260905151805 33 292 6.4 6.4 0.00 0.00 0.00 46 1009.2
20260905151408 33 292 3.2 6.4 0.00 0.00 0.00 46 1009.3
20260905151205 33 22 4.8 6.4 0.00 0.00 0.00 46 1009.4
20260905150908 33 315 6.4 6.4 0.00 0.00 0.00 46 1009.3
20260905150605 33 292 4.8 6.4 0.00 0.00 0.00 46 1009.4
20260905150408 33 292 6.4 6.4 0.00 0.00 0.00 46 1009.4
20260905150005 33 270 3.2 9.7 0.00 0.00 0.00 46 1009.3
20260905145405 33 225 4.8 11.3 0.00 0.00 0.00 46 1009.3
20260905144805 33 315 3.2 8.0 0.00 0.00 0.00 45 1009.3
20260905144205 33 225 8.0 8.0 0.00 0.00 0.00 46 1009.3
20260905143948 33 45 3.2 6.4 0.00 0.00 0.00 46 1009.3
20260905143908 33 45 3.2 6.4 0.00 0.00 0.00 46 1009.3
20260905143605 33 180 4.8 4.8 0.00 0.00 0.00 46 1009.3
20260905143005 33 0 0.0 4.8 0.00 0.00 0.00 47 1009.4
20260905142405 33 180 4.8 9.7 0.00 0.00 0.00 47 1009.5
20260905141805 33 292 3.2 6.4 0.00 0.00 0.00 46 1009.5
20260905141409 33 292 3.2 12.9 0.00 0.00 0.00 46 1009.5
20260905141205 33 315 6.4 12.9 0.00 0.00 0.00 46 1009.6
20260905140909 33 292 12.9 12.9 0.00 0.00 0.00 46 1009.8
20260905140605 33 292 9.7 9.7 0.00 0.00 0.00 46 1009.7
20260905140005 33 270 12.9 12.9 0.00 0.00 0.00 46 1009.8
20260905135908 33 270 12.9 12.9 0.00 0.00 0.00 46 1009.8
20260905135405 33 292 4.8 4.8 0.00 0.00 0.00 46 1009.9
20260905134805 33 292 4.8 9.7 0.00 0.00 0.00 45 1010.1
20260905134205 33 337 6.4 6.4 0.00 0.00 0.00 46 1009.8
20260905133908 33 270 6.4 6.4 0.00 0.00 0.00 46 1009.9
20260905133605 33 292 6.4 6.4 0.00 0.00 0.00 46 1010.0
20260905133409 33 0 1.6 3.2 0.00 0.00 0.00 46 1009.9
20260905133005 33 270 3.2 6.4 0.00 0.00 0.00 46 1010.0
20260905132911 33 270 3.2 6.4 0.00 0.00 0.00 46 1010.0
20260905132405 33 315 6.4 12.9 0.00 0.00 0.00 46 1009.9
20260905131908 33 315 3.2 12.9 0.00 0.00 0.00 46 1010.1
20260905131805 33 315 3.2 12.9 0.00 0.00 0.00 46 1010.1
20260905131205 33 270 8.0 12.9 0.00 0.00 0.00 47 1010.2
20260905130909 33 270 8.0 14.5 0.00 0.00 0.00 47 1010.4
20260905130605 33 270 14.5 14.5 0.00 0.00 0.00 47 1010.3
20260905130408 32 247 4.8 8.0 0.00 0.00 0.00 47 1010.3
20260905130005 32 270 8.0 8.0 0.00 0.00 0.00 48 1010.3
20260905125910 32 270 8.0 8.0 0.00 0.00 0.00 48 1010.3
20260905125405 32 292 1.6 8.0 0.00 0.00 0.00 48 1010.4
20260905124909 32 337 6.4 6.4 0.00 0.00 0.00 51 1010.5
20260905124805 32 337 6.4 6.4 0.00 0.00 0.00 51 1010.4
20260905124408 32 292 1.6 12.9 0.00 0.00 0.00 51 1010.4
20260905124205 32 337 1.6 12.9 0.00 0.00 0.00 51 1010.6
20260905123910 32 292 12.9 12.9 0.00 0.00 0.00 52 1010.5
20260905123605 32 292 8.0 12.9 0.00 0.00 0.00 53 1010.6
20260905123413 32 315 12.9 12.9 0.00 0.00 0.00 53 1010.5
20260905123006 32 225 4.8 6.4 0.00 0.00 0.00 53 1010.7
20260905122405 32 270 6.4 6.4 0.00 0.00 0.00 53 1010.6
20260905121805 32 315 6.4 11.3 0.00 0.00 0.00 55 1010.5
20260905121408 32 315 6.4 11.3 0.00 0.00 0.00 55 1010.6
20260905121205 32 292 11.3 11.3 0.00 0.00 0.00 55 1010.7
20260905120909 32 292 4.8 4.8 0.00 0.00 0.00 55 1010.7
20260905120605 32 67 4.8 4.8 0.00 0.00 0.00 56 1010.7
20260905120005 31 292 0.0 6.4 0.00 0.00 0.00 57 1010.7
20260905115908 31 292 0.0 6.4 0.00 0.00 0.00 57 1010.8
20260905115405 31 247 6.4 6.4 0.00 0.00 0.00 57 1010.9
20260905114909 31 292 6.4 6.4 0.00 0.00 0.00 57 1010.8
20260905114805 31 292 6.4 6.4 0.00 0.00 0.00 57 1010.8
20260905114205 31 270 6.4 6.4 0.00 0.00 0.00 57 1010.9
20260905113605 31 337 4.8 12.9 0.00 0.00 0.00 57 1011.1
20260905113408 31 247 12.9 12.9 0.00 0.00 0.00 57 1011.2
20260905113005 31 225 1.6 9.7 0.00 0.00 0.00 57 1011.3
20260905112908 31 225 1.6 9.7 0.00 0.00 0.00 57 1011.3
20260905112411 31 315 9.7 9.7 0.00 0.00 0.00 57 1011.0
20260905112405 31 315 8.0 8.0 0.00 0.00 0.00 57 1011.0
20260905111805 31 292 4.8 4.8 0.00 0.00 0.00 57 1011.1
20260905111205 31 202 0.0 6.4 0.00 0.00 0.00 57 1011.2
20260905110605 30 202 0.0 0.0 0.00 0.00 0.00 58 1011.2
20260905110411 30 202 0.0 3.2 0.00 0.00 0.00 58 1011.3
20260905110006 30 0 3.2 6.4 0.00 0.00 0.00 58 1011.3
20260905105909 30 0 3.2 6.4 0.00 0.00 0.00 58 1011.2
20260905105415 30 157 6.4 8.0 0.00 0.00 0.00 59 1011.3
20260905105406 30 225 6.4 8.0 0.00 0.00 0.00 59 1011.3
20260905104908 30 202 8.0 9.7 0.00 0.00 0.00 59 1011.2
20260905104805 30 202 8.0 9.7 0.00 0.00 0.00 59 1011.2
20260905104417 30 202 9.7 9.7 0.00 0.00 0.00 59 1011.3
20260905104205 30 247 1.6 6.4 0.00 0.00 0.00 59 1011.3
20260905103605 30 0 0.0 0.0 0.00 0.00 0.00 60 1011.3
20260905103005 30 202 0.0 1.6 0.00 0.00 0.00 61 1011.3
20260905102405 29 202 0.0 4.8 0.00 0.00 0.00 61 1011.3
20260905101908 29 180 4.8 4.8 0.00 0.00 0.00 62 1011.4
20260905101805 29 180 4.8 4.8 0.00 0.00 0.00 62 1011.3
20260905101205 29 292 3.2 3.2 0.00 0.00 0.00 63 1011.5
20260905100908 29 135 1.6 4.8 0.00 0.00 0.00 65 1011.5
20260905100605 28 247 4.8 4.8 0.00 0.00 0.00 65 1011.5
20260905100408 28 67 1.6 1.6 0.00 0.00 0.00 65 1011.5